EW3608 Weather Reports


time (UTC)temp
F
wind
direction
speed
knots
gust
knots
rain 1hr
in
rain 24hr
in
rain mn
in
humidity
%
barometer
mb
20240723052743 63 0 0.0 0.0 0.00 0.00 0.00 58 1024.8
20240723051630 64 0 0.0 0.0 0.00 0.00 0.00 57 1024.7
20240723050730 64 0 0.0 0.0 0.00 0.00 0.00 57 1024.7
20240723050044 64 0 0.0 0.0 0.00 0.00 0.00 57 1024.7
20240723044930 65 0 0.0 0.0 0.00 0.00 0.00 56 1024.7
20240723044244 65 0 0.0 0.0 0.00 0.00 0.00 56 1024.7
20240723043130 66 0 0.0 0.0 0.00 0.00 0.00 53 1024.7
20240723042444 66 0 0.0 0.0 0.00 0.00 0.00 52 1024.6
20240723041541 67 0 0.0 0.0 0.00 0.00 0.00 51 1024.6
20240723040644 67 0 0.0 0.0 0.00 0.00 0.00 49 1024.6
20240723035746 68 276 0.0 0.9 0.00 0.00 0.00 48 1024.6
20240723034843 68 276 0.0 0.9 0.00 0.00 0.00 46 1024.6
20240723033940 69 276 0.0 0.9 0.00 0.00 0.00 46 1024.5
20240723032830 71 276 0.0 1.7 0.00 0.00 0.00 44 1024.4
20240723032140 72 276 0.0 0.9 0.00 0.00 0.00 41 1024.4
20240723031030 73 276 0.0 0.9 0.00 0.00 0.00 38 1024.2
20240723030340 73 276 0.0 1.7 0.00 0.00 0.00 37 1024.0
20240723025442 74 276 0.9 5.2 0.00 0.00 0.00 36 1024.0
20240723024330 74 277 0.9 4.3 0.00 0.01 0.00 36 1023.9
20240723023642 74 277 0.9 4.3 0.00 0.01 0.00 36 1023.8
20240723022532 74 288 1.7 6.1 0.00 0.01 0.00 35 1023.8
20240723021842 75 15 1.7 6.1 0.00 0.01 0.00 35 1023.7
20240723020944 75 47 0.9 5.2 0.00 0.01 0.00 36 1023.7
20240723020041 75 50 0.9 3.5 0.00 0.01 0.00 37 1023.8
20240723014932 76 50 0.9 2.6 0.00 0.01 0.00 37 1023.7
20240723014032 76 50 0.9 3.5 0.00 0.01 0.00 35 1023.7
20240723013343 76 50 1.7 4.3 0.00 0.01 0.00 35 1023.7
20240723012230 77 51 0.0 1.7 0.00 0.01 0.00 38 1023.6
20240723011543 78 0 0.0 0.0 0.00 0.01 0.00 36 1023.6
20240723010430 79 51 0.0 0.9 0.00 0.01 0.00 35 1023.5
20240723005743 80 51 0.0 0.9 0.00 0.01 0.00 35 1023.5
20240723004632 80 51 0.0 2.6 0.00 0.01 0.00 33 1023.6
20240723003942 80 50 0.9 5.2 0.00 0.01 0.00 34 1023.5
20240723002830 81 49 1.7 4.3 0.00 0.01 0.00 33 1023.4
20240723002142 81 49 1.7 3.5 0.00 0.01 0.00 32 1023.4
20240723001244 81 49 1.7 4.3 0.00 0.01 0.00 32 1023.4
20240723000342 81 47 1.7 4.3 0.00 0.01 0.00 32 1023.3
20240722235231 81 47 0.9 4.3 0.00 0.01 0.00 33 1023.3
20240722234541 81 42 0.9 4.3 0.00 0.01 0.00 32 1023.3
20240722233432 81 42 0.9 4.3 0.00 0.01 0.00 32 1023.2
20240722232741 81 66 1.7 6.1 0.00 0.01 0.00 32 1023.2
20240722231631 81 78 1.7 7.0 0.00 0.01 0.00 32 1023.2
20240722230732 82 77 0.9 4.3 0.00 0.01 0.00 32 1023.3
20240722225830 82 81 1.7 7.0 0.00 0.01 0.00 31 1023.3
20240722225140 82 71 1.7 7.0 0.00 0.01 0.00 32 1023.3
20240722224030 82 92 2.6 7.0 0.00 0.01 0.00 31 1023.4
20240722223340 82 56 1.7 5.2 0.00 0.01 0.00 31 1023.3
20240722222443 82 31 1.7 7.8 0.00 0.01 0.00 30 1023.5
20240722221545 81 77 2.6 7.8 0.00 0.01 0.00 30 1023.5
20240722220432 82 54 1.7 6.1 0.00 0.01 0.00 29 1023.7
20240722215530 82 35 0.9 4.3 0.00 0.01 0.00 29 1023.6
20240722214842 82 32 0.9 4.3 0.00 0.01 0.00 30 1023.7
20240722213944 82 9 1.7 5.2 0.00 0.01 0.00 29 1023.8
20240722213042 82 17 1.7 6.1 0.00 0.01 0.00 30 1023.9
20240722211932 82 40 0.9 5.2 0.00 0.01 0.00 29 1024.0
20240722211241 82 42 1.7 5.2 0.00 0.01 0.00 30 1024.1
20240722210344 82 17 1.7 7.0 0.00 0.01 0.00 29 1024.3
20240722205232 82 30 1.7 5.2 0.00 0.01 0.00 28 1024.5
20240722204543 81 22 1.7 4.3 0.00 0.01 0.00 29 1024.6
20240722203641 81 11 1.7 4.3 0.00 0.01 0.00 28 1024.6
20240722202743 81 9 0.9 4.3 0.00 0.01 0.00 29 1024.8
20240722201632 80 26 2.6 9.6 0.00 0.01 0.00 29 1024.9
20240722200943 80 0 0.0 4.3 0.00 0.01 0.00 30 1024.9
20240722195831 80 49 1.7 4.3 0.00 0.01 0.00 30 1025.0
20240722195142 80 67 1.7 6.1 0.00 0.01 0.00 30 1025.1
20240722194030 80 63 1.7 6.1 0.00 0.01 0.00 31 1025.2
20240722193130 79 84 3.5 7.8 0.00 0.01 0.00 32 1025.4
20240722192230 80 12 1.7 7.0 0.00 0.01 0.00 34 1025.4
20240722191330 79 57 2.6 7.8 0.00 0.01 0.00 33 1025.5
20240722190644 80 56 1.7 7.8 0.00 0.01 0.00 35 1025.5
20240722185741 79 33 1.7 6.1 0.00 0.01 0.00 35 1025.7
20240722184844 79 88 2.6 7.8 0.00 0.01 0.00 36 1025.7
20240722183941 78 33 1.7 7.0 0.00 0.01 0.00 38 1025.7
20240722183044 79 86 1.7 7.0 0.00 0.01 0.00 37 1025.8
20240722181930 78 38 0.9 4.3 0.00 0.01 0.00 37 1025.7
20240722181030 78 38 1.7 4.3 0.00 0.01 0.00 39 1025.9
20240722180340 78 38 0.9 5.2 0.00 0.01 0.00 37 1025.9
20240722175443 78 37 0.9 5.2 0.00 0.01 0.00 39 1026.0
20240722174332 77 37 1.7 4.3 0.00 0.01 0.00 39 1026.0
20240722173430 77 43 0.9 3.5 0.00 0.01 0.00 41 1026.1
20240722172740 77 43 0.9 4.3 0.00 0.01 0.00 42 1026.1
20240722171631 76 44 1.7 3.5 0.00 0.01 0.00 42 1026.1
20240722170730 75 37 1.7 3.5 0.00 0.01 0.00 44 1026.2
20240722170042 75 29 0.9 3.5 0.00 0.01 0.00 42 1026.2
20240722164930 75 162 0.0 3.5 0.00 0.01 0.00 43 1026.4
20240722164242 75 165 0.9 3.5 0.00 0.01 0.00 42 1026.4
20240722163344 74 168 0.9 2.6 0.00 0.01 0.00 44 1026.3
20240722162232 74 190 0.9 3.5 0.00 0.01 0.00 43 1026.4
20240722161330 74 195 0.9 3.5 0.00 0.01 0.00 42 1026.5
20240722160641 74 196 0.0 2.6 0.00 0.01 0.00 44 1026.5
20240722155743 73 195 0.9 3.5 0.00 0.01 0.00 43 1026.5
20240722154630 73 196 0.0 1.7 0.00 0.01 0.00 47 1026.5
20240722153732 73 196 0.0 2.6 0.00 0.01 0.00 48 1026.6
20240722153040 72 196 0.0 0.9 0.00 0.01 0.00 48 1026.6
20240722151931 71 196 0.0 1.7 0.00 0.01 0.00 47 1026.6
20240722151032 71 0 0.0 0.0 0.00 0.01 0.00 49 1026.5
20240722150342 70 196 0.0 0.9 0.00 0.01 0.00 52 1026.6
20240722145440 69 0 0.0 0.0 0.00 0.01 0.00 55 1026.7
20240722144330 66 196 0.0 0.9 0.00 0.01 0.00 59 1026.8
20240722143432 65 196 0.9 2.6 0.00 0.01 0.00 60 1026.9
20240722142742 64 196 0.0 2.6 0.00 0.01 0.00 64 1026.9
20240722141631 63 196 0.0 1.7 0.00 0.01 0.00 66 1026.8
20240722140730 62 196 0.0 1.7 0.00 0.01 0.00 68 1026.8
20240722140044 61 196 0.0 1.7 0.00 0.01 0.00 70 1026.7
20240722134930 60 0 0.0 0.0 0.00 0.01 0.00 75 1026.8
20240722134030 58 0 0.0 0.9 0.00 0.01 0.00 76 1026.7
20240722133132 58 196 0.0 0.9 0.00 0.01 0.00 78 1026.5
20240722132230 56 0 0.0 0.0 0.00 0.01 0.00 80 1026.4
20240722131546 56 0 0.0 0.9 0.00 0.01 0.00 81 1026.3
20240722130643 54 196 0.0 0.9 0.00 0.01 0.00 83 1026.3
20240722125532 54 0 0.0 0.0 0.00 0.01 0.00 83 1026.1
20240722124843 54 0 0.0 0.0 0.00 0.01 0.00 84 1026.1
20240722123730 53 0 0.0 0.0 0.00 0.01 0.00 83 1026.0
20240722122832 53 0 0.0 0.0 0.00 0.01 0.00 83 1026.0
20240722122145 53 0 0.0 0.0 0.00 0.01 0.00 83 1026.0
20240722121030 54 0 0.0 0.0 0.00 0.01 0.00 83 1026.1
20240722120344 54 196 0.0 1.7 0.00 0.01 0.00 83 1026.0
20240722115442 53 196 0.9 2.6 0.00 0.01 0.00 85 1026.1
20240722114544 53 0 0.0 0.0 0.00 0.01 0.00 85 1026.1
20240722113641 53 0 0.0 0.0 0.00 0.01 0.00 84 1026.1
20240722112532 53 196 0.0 1.7 0.00 0.01 0.00 84 1026.1
20240722111630 53 196 0.0 1.7 0.00 0.01 0.00 84 1026.0
20240722110731 54 196 0.0 0.9 0.00 0.01 0.00 83 1026.0
20240722105832 54 196 0.0 0.9 0.00 0.01 0.00 83 1025.9
20240722105143 54 0 0.0 0.0 0.00 0.01 0.00 83 1025.8
20240722104031 54 0 0.0 0.0 0.00 0.01 0.00 82 1025.7
20240722103343 54 0 0.0 0.0 0.00 0.01 0.00 82 1025.7
20240722102230 54 196 0.0 0.9 0.00 0.01 0.00 81 1025.7
20240722101330 54 0 0.0 0.0 0.00 0.01 0.00 81 1025.6
20240722100430 55 0 0.0 0.0 0.00 0.01 0.00 80 1025.6
20240722095530 55 0 0.0 1.7 0.00 0.01 0.00 79 1025.7
20240722094630 55 196 0.0 1.7 0.00 0.01 0.00 80 1025.7
20240722093730 55 196 0.0 1.7 0.00 0.01 0.00 79 1025.7
20240722092830 55 196 0.0 1.7 0.00 0.01 0.00 79 1025.9
20240722092141 55 196 0.0 1.7 0.00 0.01 0.00 80 1025.8
20240722091030 55 0 0.0 0.0 0.00 0.01 0.00 80 1025.9
20240722090130 55 0 0.0 0.0 0.00 0.01 0.00 80 1026.2
20240722085444 55 0 0.0 0.0 0.00 0.01 0.00 80 1026.1
20240722084330 56 0 0.0 0.0 0.00 0.01 0.00 79 1026.1
20240722083643 56 196 0.0 0.9 0.00 0.01 0.00 79 1026.1
20240722082530 56 0 0.0 0.0 0.00 0.01 0.00 79 1026.3
20240722081843 56 0 0.0 0.0 0.00 0.01 0.00 78 1026.4
20240722080730 56 0 0.0 0.0 0.00 0.01 0.00 78 1026.5
20240722075830 57 0 0.0 0.0 0.00 0.01 0.00 77 1026.7